Вернуться в каталог

CZ-6A DEB

АктивенSSO
NORAD 69092·DEBRIS·🇨🇳 China

Запущен Nov 11, 2022 с Taiyuan Satellite Launch Center

Loading…

Ближайшие Пролёты (ближайшие 24 часа)

TLE

СвежийSource: Space-Track

Эпоха: Sep 13, 2026, 12:56 UTC

1 69092U 22151AJK 26256.53956207  .00004802  00000-0  16937-2 0  9997
2 69092  98.8330 285.2227 0027535  23.3581 336.8847 14.35011073174119

Отслеживайте CZ-6A DEB в реальном времени с AllMySat

Download on the App Store